Location: Arcusa
(42.3167°N, 0.0833°W)
Time: 09:17:38
(UTC+00:00)

CENTAUR R/B - Pass Details

Date: 25 January 2020
Orbit: 766 x 1422 km, 63.5° (Epoch: 19 February)

Event Time Altitude Azimuth Distance (km) Brightness Sun altitude
Exits shadow 05:59:10 13° 315° (NW) 3,086 4.6 -15.1°
Maximum altitude 06:06:21 54° 243° (WSW) 1,649 3.4 -13.8°
Drops below altitude 10° 06:14:48 10° 169° (S) 3,511 5.7 -12.3°
Sets 06:17:48 0° 165° (SSE) 4,473 6.4 -11.8°
